Tracking 19562 objects as of 24-Mar-2019
HD Live streaming from Space Station
objects crossing your sky now

SL-8 DEB *

Track SL-8 DEB * now!
10-day predictions


NORAD ID: 14345
Int'l Code: 1979-089C
Perigee: 680.8 km
Apogee: 693.4 km
Inclination: 74.0 °
Period: 98.4 minutes
Semi major axis: 7058 km
RCS: 0.0065 m2 (small)
Launch date: October 11, 1979
Source: Commonwealth of Independent States (former USSR) (CIS)
Launch site: PLESETSK MISSILE AND SPACE COMPLEX (PKMTR)

Note: This is SATELLITE DEBRIS
aabbcc
Your satellite tracking list
Your tracking list is empty




NASA's NSSDC Master Catalog

Two Line Element Set (TLE):
1 14345U 79089C   19082.93405102 +.00000276 +00000-0 +58331-4 0  9993
2 14345 074.0241 033.1714 0008915 008.5449 051.7531 14.64110290890848
Source of the keplerian elements: AFSPC